Home > Time Zones > World Clock > Weather > Mali > Bamako > Past weeks

Flag for Mali Weather past 2 weeks in Bamako, Mali

Now
68 °F

Duststorm.


Feels Like: 68 °F
Forecast: 60 / 90 °F
Wind: 14 mph from Northeast

Location: Bamako / Senou

Current Time: Dec 20, 2014 at 9:10:07 AM

Latest Report: Dec 20, 2014 at 8:30 AM


Visibility: 2 mi

Pressure: 30.09 "Hg

Humidity: 24%

Dew point: 30 °F

Location of BamakoLocation

Historic Weather in Bamako — Graph

°F

Bamako temperature yesterday

Maximum temperature yesterday: 88 °F (at 3:00 PM)
Minimum temperature yesterday: 63 °F (at 6:30 AM)
Average temperature yesterday: 75 °F

Past Weeks' High & Low Weather Summary

 TemperatureHumidityPressure
High97 °F (Dec 5, 1:30 PM)73% (Dec 6, 4:00 AM)30.09 "Hg (Dec 6, 4:00 AM)
Low50 °F (Dec 13, 3:30 AM)10% (Dec 6, 2:00 PM)29.86 "Hg (Dec 5, 3:00 PM)
Average77 °F23%29.98 "Hg
* Reported Dec 5 7:00 AM — Dec 20 7:30 AM, Bamako, Weather by CustomWeather, © 2014

Note: Actual official high and low records may vary slightly from our data, if they occured in-between our weather recording intervals... More about our weather records

Advertising

Bamako weather history for previous 24 hours

 ConditionsComfort  
Time TempWeatherWind HumidityBarometerVisibility
7:30 AM
Dec 20
64 °FDuststorm.8 mph30%30.07 "Hg2 mi
7:00 AM61 °FClear.6 mph36%30.07 "Hg4 mi
6:30 AM63 °FClear.6 mph32%30.07 "Hg4 mi
6:00 AM61 °FPassing clouds.5 mph34%30.04 "HgN/A
5:30 AM64 °FPassing clouds.5 mph30%30.04 "HgN/A
5:00 AM66 °FClear.7 mph26%30.04 "Hg10 mi
4:30 AM66 °FClear.8 mph26%30.04 "Hg10 mi
4:00 AM68 °FClear.12 mph24%30.04 "Hg10 mi
3:30 AM66 °FClear.9 mph28%30.04 "Hg10 mi
3:00 AM66 °FClear.8 mph30%30.04 "Hg10 mi
2:30 AM68 °FPassing clouds.8 mph26%30.04 "HgN/A
2:00 AM70 °FClear.9 mph25%30.07 "Hg5 mi
1:30 AM70 °FClear.9 mph25%30.07 "Hg5 mi
1:00 AM72 °FClear.9 mph23%30.07 "Hg5 mi
12:30 AM72 °FClear.12 mph23%30.07 "Hg5 mi
12:00 AM66 °FClear.10 mph35%30.07 "Hg5 mi
11:30 PM
Dec 19
66 °FClear.8 mph32%30.07 "Hg5 mi
11:00 PM73 °FClear.9 mph23%30.07 "Hg5 mi
10:30 PM75 °FClear.10 mph21%30.09 "Hg5 mi
10:00 PM75 °FClear.9 mph21%30.07 "Hg5 mi
9:30 PM70 °FClear.9 mph25%30.07 "Hg5 mi
9:00 PM75 °FClear.8 mph21%30.07 "Hg5 mi
8:30 PM72 °FClear.8 mph25%30.04 "Hg4 mi
8:00 PM75 °FClear.9 mph21%30.04 "Hg4 mi
7:30 PM79 °FClear.9 mph18%30.01 "Hg4 mi
7:00 PM77 °FClear.8 mph18%30.01 "Hg4 mi
6:30 PM75 °FClear.9 mph21%29.98 "Hg4 mi
6:00 PM81 °FClear.9 mph15%29.98 "Hg4 mi
5:30 PM84 °FClear.10 mph13%29.98 "Hg4 mi
5:00 PM86 °FClear.10 mph11%29.98 "Hg4 mi
4:30 PM86 °FClear.12 mph12%29.98 "Hg4 mi
4:00 PM86 °FClear.13 mph12%29.98 "Hg4 mi
3:30 PM88 °FClear.14 mph11%29.98 "Hg4 mi
3:00 PM88 °FClear.12 mph12%29.98 "Hg4 mi
2:00 PM86 °FDuststorm.13 mph13%30.01 "Hg2 mi
1:30 PM86 °FDuststorm.15 mph12%30.01 "Hg2 mi
1:00 PM84 °FDuststorm.12 mph13%30.04 "Hg2 mi
12:00 PM82 °FDuststorm.6 mph15%30.04 "Hg2 mi
11:30 AM81 °FDuststorm.13 mph15%30.07 "Hg2 mi
11:00 AM79 °FDuststorm.14 mph15%30.09 "Hg2 mi
10:30 AM77 °FDuststorm.14 mph14%30.09 "Hg2 mi
10:00 AM75 °FDuststorm.15 mph16%30.09 "Hg2 mi
9:30 AM73 °FClear.14 mph16%30.09 "Hg2 mi
9:00 AM72 °FClear.16 mph16%30.07 "Hg4 mi
Weather by CustomWeather, © 2014

See weather overviewHow to use our weather pages